Weather History for Hurlburt Field, FL

Change the Weather History Date:

Saturday, October 27, 2012

  Actual Average Record
Temperature  
Mean Temperature 60 °F -  
Max Temperature 68 °F 74 °F 84 °F (1996)
Min Temperature 53 °F 55 °F -22 °F (2007)
Degree Days  
Heating Degree Days 4    
Growing Degree Days 10 (Base 50)    
Moisture  
Dew Point 55 °F    
Average Humidity 83    
Maximum Humidity 96    
Minimum Humidity 67    
Precipitation  
Precipitation 0.00 in - - ()
Sea Level Pressure  
Sea Level Pressure 29.87 in    
Wind  
Wind Speed 16 mph (North)    
Max Wind Speed 24 mph    
Max Gust Speed 32 mph    
Visibility 10 miles    
Events      
Averages and records for this station are not official NWS values.
T = Trace of Precipitation, MM = Missing Value Source: NWS Daily Summary

Daily Weather History Graph

Daily Weather History Graph

Search for Another Location

Airport:

Trip Planner

Search our weather history database for the weather conditions in past years. The results will help you decide how hot, cold, wet, or windy it might be!

Date:

Astronomy

Oct. 27, 2012 Rise Set
Actual Time 6:57 AM CDT 6:02 PM CDT
Civil Twilight 6:33 AM CDT 6:27 PM CDT
Nautical Twilight 6:04 AM CDT 6:55 PM CDT
Astronomical Twilight 5:36 AM CDT 7:23 PM CDT
Moon 4:44 PM CDT (10/27) 4:58 AM CDT (10/27)
Length of Visible Light 11h 54m
Length of Day
11h 05m
Waxing Gibbous, 96% of the Moon is Illuminated
Oct 27
Waxing Gibbous
Oct 29
Full
Nov 6
Last Quarter
Nov 13
New
Nov 20
First Quarter

Hourly Weather History & Observations

Time (CDT) Temp. Dew Point Humidity Pressure Visibility Wind Dir Wind Speed Gust Speed Precip Events Conditions
12:55 AM 66.0 °F 62.4 °F 88% 29.87 in 10.0 mi North 10.4 mph - N/A   Clear
1:55 AM 66.7 °F 63.0 °F 88% 29.86 in 10.0 mi North 10.4 mph - N/A   Clear
2:55 AM 65.8 °F 63.7 °F 93% 29.85 in 10.0 mi North 12.7 mph - N/A   Clear
3:55 AM 64.6 °F 63.3 °F 96% 29.85 in 10.0 mi North 11.5 mph - N/A   Clear
4:34 AM 64.4 °F 62.6 °F 94% 29.85 in 10.0 mi North 11.5 mph - N/A   Mostly Cloudy
4:55 AM 63.1 °F 61.0 °F 93% 29.86 in 10.0 mi North 15.0 mph 24.2 mph N/A   Mostly Cloudy
5:07 AM 62.6 °F 60.8 °F 94% 29.86 in 10.0 mi North 13.8 mph - N/A   Overcast
5:55 AM 60.8 °F 58.8 °F 93% 29.87 in 10.0 mi North 16.1 mph - N/A   Mostly Cloudy
6:17 AM 60.8 °F 59.0 °F 94% 29.87 in 10.0 mi North 18.4 mph - N/A   Overcast
6:55 AM 59.5 °F 57.6 °F 93% 29.88 in 10.0 mi North 17.3 mph - N/A   Overcast
7:55 AM 59.0 °F 56.3 °F 91% 29.89 in 10.0 mi North 19.6 mph - N/A   Overcast
8:55 AM 59.7 °F 55.6 °F 86% 29.90 in 10.0 mi North 23.0 mph - N/A   Overcast
9:10 AM 59.0 °F 55.4 °F 88% 29.90 in 10.0 mi North 17.3 mph - N/A   Scattered Clouds
9:55 AM 62.2 °F 56.1 °F 80% 29.90 in 10.0 mi North 19.6 mph - N/A   Clear
10:55 AM 64.2 °F 56.5 °F 76% 29.90 in 10.0 mi North 19.6 mph 24.2 mph N/A   Clear
11:55 AM 64.9 °F 55.9 °F 73% 29.88 in 10.0 mi North 18.4 mph - N/A   Clear
12:55 PM 66.7 °F 56.3 °F 69% 29.86 in 10.0 mi North 18.4 mph - N/A   Clear
1:22 PM 68.0 °F 57.2 °F 68% 29.85 in 10.0 mi North 17.3 mph 26.5 mph N/A   Light Drizzle
1:32 PM 68.0 °F 57.2 °F 68% 29.84 in 10.0 mi North 18.4 mph - N/A   Clear
1:55 PM 68.0 °F 56.8 °F 67% 29.84 in 10.0 mi North 18.4 mph 23.0 mph 0.00 in   Clear
2:55 PM 66.6 °F 55.4 °F 67% 29.82 in 10.0 mi North 18.4 mph 25.3 mph N/A   Clear
3:55 PM 64.2 °F 54.1 °F 70% 29.82 in 10.0 mi NNW 17.3 mph - N/A   Clear
4:55 PM 60.1 °F 52.3 °F 76% 29.83 in 10.0 mi NNW 23.0 mph 29.9 mph N/A   Clear
5:27 PM 59.0 °F 51.8 °F 77% 29.83 in 10.0 mi North 16.1 mph 24.2 mph N/A   Mostly Cloudy
5:55 PM 56.5 °F 50.7 °F 81% 29.85 in 10.0 mi NNW 19.6 mph 29.9 mph N/A   Overcast
6:37 PM 55.4 °F 50.0 °F 82% 29.86 in 10.0 mi North 24.2 mph 29.9 mph N/A   Overcast
6:55 PM 55.0 °F 50.4 °F 84% 29.87 in 10.0 mi North 19.6 mph - N/A   Overcast
7:55 PM 54.3 °F 49.3 °F 83% 29.88 in 10.0 mi North 21.9 mph 26.5 mph N/A   Overcast
8:55 PM 54.1 °F 49.1 °F 83% 29.89 in 10.0 mi North 21.9 mph 28.8 mph N/A   Overcast
9:55 PM 53.8 °F 49.1 °F 84% 29.90 in 10.0 mi North 21.9 mph 28.8 mph N/A   Overcast
10:47 PM 53.6 °F 48.2 °F 82% 29.89 in 10.0 mi North 19.6 mph 32.2 mph N/A   Overcast
10:55 PM 53.6 °F 48.9 °F 84% 29.89 in 10.0 mi North 20.7 mph 28.8 mph N/A   Overcast
11:51 PM 53.6 °F 48.2 °F 82% 29.88 in 10.0 mi North 17.3 mph - N/A   Overcast
11:55 PM 53.6 °F 48.9 °F 84% 29.88 in 10.0 mi North 17.3 mph - N/A   Overcast